�������l�o���
Date,Time,MP-1(��Sv/h),MP-2(��Sv/h),MP-3(��Sv/h),MP-4(��Sv/h),MP-5(��Sv/h),MP-6(��Sv/h),MP-7(��Sv/h),MP-8(��Sv/h),����,����(m/s),���J
2023/11/17,00:00,0.516,0.779,0.486,0.979,0.704,0.314,0.564,0.527,�k�k��,2.3,��
2023/11/17,00:10,0.516,0.780,0.486,0.980,0.706,0.316,0.564,0.527,�k�k��,3.5,��
2023/11/17,00:20,0.516,0.780,0.487,0.980,0.707,0.314,0.564,0.525,�k,3.4,��
2023/11/17,00:30,0.516,0.780,0.487,0.980,0.704,0.313,0.564,0.528,�k,4.2,��
2023/11/17,00:40,0.515,0.782,0.487,0.982,0.707,0.314,0.562,0.527,�k�k��,4.1,��
2023/11/17,00:50,0.515,0.781,0.487,0.980,0.707,0.314,0.564,0.528,�k�k��,4.0,��
2023/11/17,01:00,0.516,0.781,0.487,0.980,0.704,0.315,0.561,0.528,�k�k��,3.5,��
2023/11/17,01:10,0.516,0.781,0.485,0.980,0.705,0.314,0.563,0.527,�k�k��,3.5,��
2023/11/17,01:20,0.516,0.781,0.487,0.978,0.706,0.313,0.563,0.526,�k�k��,3.1,��
2023/11/17,01:30,0.516,0.778,0.488,0.980,0.706,0.314,0.564,0.527,�k�k��,3.4,��
2023/11/17,01:40,0.516,0.780,0.487,0.984,0.706,0.315,0.562,0.527,�k�k��,2.9,��
2023/11/17,01:50,0.516,0.781,0.487,0.980,0.706,0.315,0.563,0.528,�k�k��,3.3,��
2023/11/17,02:00,0.517,0.780,0.487,0.982,0.705,0.314,0.563,0.527,�k�k��,3.5,��
2023/11/17,02:10,0.516,0.781,0.487,0.980,0.706,0.315,0.563,0.528,�k�k��,4.3,��
2023/11/17,02:20,0.517,0.780,0.487,0.982,0.704,0.313,0.564,0.526,�k�k��,3.4,��
2023/11/17,02:30,0.517,0.779,0.488,0.980,0.706,0.316,0.563,0.527,�k�k��,1.9,��
2023/11/17,02:40,0.517,0.780,0.487,0.982,0.707,0.314,0.564,0.526,�k�k��,2.8,��
2023/11/17,02:50,0.514,0.780,0.487,0.982,0.707,0.315,0.565,0.527,�k�k��,4.1,��
2023/11/17,03:00,0.516,0.782,0.487,0.979,0.704,0.314,0.563,0.527,�k�k��,4.0,�L
2023/11/17,03:10,0.515,0.781,0.487,0.981,0.705,0.315,0.564,0.527,�k,4.1,�L
2023/11/17,03:20,0.517,0.782,0.487,0.981,0.707,0.315,0.563,0.527,�k,1.7,�L
2023/11/17,03:30,0.517,0.781,0.487,0.979,0.707,0.316,0.565,0.528,�k,1.9,�L
2023/11/17,03:40,0.517,0.781,0.485,0.981,0.706,0.315,0.563,0.527,�k��,2.3,�L
2023/11/17,03:50,0.516,0.781,0.487,0.981,0.707,0.314,0.564,0.529,�k��,2.2,�L
2023/11/17,04:00,0.516,0.781,0.487,0.981,0.707,0.316,0.563,0.527,�k��,2.9,�L
2023/11/17,04:10,0.516,0.782,0.487,0.980,0.705,0.314,0.563,0.527,�k��,3.7,�L
2023/11/17,04:20,0.517,0.780,0.487,0.981,0.706,0.314,0.563,0.526,���k��,3.6,�L
2023/11/17,04:30,0.516,0.780,0.487,0.982,0.707,0.316,0.562,0.528,���k��,2.6,�L
2023/11/17,04:40,0.515,0.779,0.486,0.982,0.705,0.315,0.564,0.526,�k��,1.9,�L
2023/11/17,04:50,0.516,0.779,0.487,0.981,0.705,0.316,0.564,0.527,�k��,2.0,�L
2023/11/17,05:00,0.516,0.782,0.487,0.982,0.706,0.317,0.562,0.527,�k��,2.2,�L
2023/11/17,05:10,0.517,0.781,0.487,0.982,0.705,0.315,0.562,0.528,�k�k��,2.6,�L
2023/11/17,05:20,0.517,0.781,0.488,0.980,0.705,0.315,0.564,0.526,�k�k��,3.3,�L
2023/11/17,05:30,0.518,0.779,0.488,0.981,0.705,0.316,0.563,0.527,�k�k��,3.4,�L
2023/11/17,05:40,0.516,0.780,0.487,0.982,0.706,0.315,0.563,0.528,�k�k��,4.2,�L
2023/11/17,05:50,0.515,0.780,0.487,0.982,0.706,0.316,0.564,0.527,�k�k��,5.9,�L
2023/11/17,06:00,0.517,0.781,0.487,0.981,0.706,0.314,0.563,0.527,�k�k��,6.4,�L
2023/11/17,06:10,0.516,0.777,0.487,0.980,0.703,0.315,0.565,0.527,�k�k��,6.0,�L
2023/11/17,06:20,0.513,0.771,0.482,0.971,0.693,0.315,0.559,0.524,�k�k��,5.6,�L
2023/11/17,06:30,0.509,0.766,0.479,0.966,0.690,0.315,0.558,0.523,�k�k��,4.8,�L
2023/11/17,06:40,0.508,0.764,0.480,0.963,0.689,0.313,0.555,0.521,�k,4.4,�L
2023/11/17,06:50,0.502,0.755,0.477,0.953,0.683,0.311,0.553,0.519,�k��,4.7,�L
2023/11/17,07:00,0.502,0.754,0.478,0.949,0.681,0.312,0.552,0.519,�k��,2.9,�L
2023/11/17,07:10,0.499,0.748,0.474,0.943,0.676,0.311,0.552,0.516,�k�k��,1.7,�L
2023/11/17,07:20,0.496,0.747,0.475,0.937,0.673,0.310,0.549,0.516,�k��,1.2,�L
2023/11/17,07:30,0.499,0.750,0.476,0.940,0.677,0.312,0.552,0.517,��,0.6,�L
2023/11/17,07:40,0.502,0.749,0.476,0.941,0.677,0.312,0.552,0.517,���k��,2.3,�L
2023/11/17,07:50,0.503,0.751,0.477,0.942,0.680,0.311,0.552,0.516,�k��,3.3,�L
2023/11/17,08:00,0.497,0.744,0.475,0.940,0.671,0.311,0.550,0.517,�k��,2.6,�L
2023/11/17,08:10,0.493,0.738,0.473,0.931,0.665,0.310,0.546,0.513,��쐼,0.9,�L
2023/11/17,08:20,0.495,0.738,0.474,0.928,0.665,0.310,0.548,0.513,�쓌,1.7,�L
2023/11/17,08:30,0.499,0.739,0.476,0.935,0.666,0.312,0.548,0.514,�쓌,4.5,�L
2023/11/17,08:40,0.500,0.744,0.477,0.934,0.668,0.311,0.551,0.515,��쓌,4.2,�L
2023/11/17,08:50,0.503,0.746,0.475,0.937,0.671,0.312,0.552,0.517,��,3.4,�L
2023/11/17,09:00,0.504,0.748,0.477,0.939,0.672,0.312,0.552,0.518,��,2.5,�L
2023/11/17,09:10,0.503,0.748,0.476,0.939,0.673,0.314,0.550,0.519,��,2.5,�L
2023/11/17,09:20,0.504,0.746,0.477,0.942,0.674,0.313,0.551,0.519,��,1.7,�L
2023/11/17,09:30,0.503,0.750,0.476,0.941,0.673,0.311,0.551,0.518,��쓌,0.9,�L
2023/11/17,09:40,0.497,0.740,0.472,0.931,0.659,0.310,0.548,0.515,�k��,1.2,�L
2023/11/17,09:50,0.489,0.732,0.470,0.918,0.645,0.306,0.544,0.510,���쐼,5.3,�L
2023/11/17,10:00,0.493,0.732,0.471,0.923,0.650,0.310,0.547,0.511,�쐼,7.3,�L
2023/11/17,10:10,0.494,0.734,0.471,0.923,0.649,0.308,0.548,0.514,��쐼,6.1,�L
2023/11/17,10:20,0.497,0.740,0.474,0.928,0.653,0.311,0.549,0.515,��,6.5,�L
2023/11/17,10:30,0.500,0.742,0.474,0.934,0.658,0.312,0.549,0.516,��,7.2,�L
2023/11/17,10:40,0.500,0.743,0.476,0.935,0.658,0.313,0.549,0.516,��,6.7,�L
2023/11/17,10:50,0.499,0.744,0.475,0.935,0.659,0.312,0.550,0.516,��,6.2,�L
2023/11/17,11:00,0.501,0.745,0.476,0.935,0.659,0.313,0.549,0.516,�쐼,3.8,�L
2023/11/17,11:10,0.501,0.744,0.476,0.937,0.660,0.312,0.550,0.517,��,5.7,�L
2023/11/17,11:20,0.502,0.748,0.475,0.940,0.661,0.311,0.551,0.518,���쐼,6.2,�L
2023/11/17,11:30,0.501,0.749,0.475,0.939,0.663,0.313,0.550,0.517,�쐼,5.4,��
2023/11/17,11:40,0.500,0.748,0.475,0.940,0.664,0.311,0.551,0.518,��쐼,6.0,��
2023/11/17,11:50,0.500,0.748,0.475,0.941,0.664,0.310,0.552,0.519,��쐼,4.5,��
2023/11/17,12:00,0.501,0.749,0.476,0.939,0.662,0.310,0.553,0.519,��,3.5,��
2023/11/17,12:10,0.500,0.751,0.475,0.940,0.662,0.310,0.553,0.520,��쐼,2.2,��
2023/11/17,12:20,0.500,0.751,0.475,0.941,0.664,0.310,0.551,0.519,��쐼,2.6,��
2023/11/17,12:30,0.501,0.751,0.476,0.943,0.664,0.309,0.551,0.520,��쐼,4.0,�L
2023/11/17,12:40,0.499,0.750,0.473,0.941,0.666,0.309,0.552,0.519,��쓌,2.0,�L
2023/11/17,12:50,0.503,0.751,0.474,0.942,0.665,0.309,0.551,0.521,�쓌,2.5,�L
2023/11/17,13:00,0.500,0.753,0.473,0.942,0.666,0.309,0.552,0.521,�쓌,3.3,�L
2023/11/17,13:10,0.501,0.750,0.475,0.942,0.667,0.311,0.551,0.519,�쓌,2.6,�L
2023/11/17,13:20,0.503,0.751,0.476,0.942,0.665,0.311,0.553,0.519,�쓌,2.5,�L
2023/11/17,13:30,0.501,0.750,0.476,0.945,0.666,0.312,0.553,0.520,��,2.0,�L
2023/11/17,13:40,0.500,0.748,0.476,0.941,0.663,0.311,0.551,0.517,�쓌,1.2,�L
2023/11/17,13:50,0.498,0.746,0.475,0.940,0.662,0.311,0.550,0.517,��,1.1,�L
2023/11/17,14:00,0.496,0.743,0.474,0.939,0.657,0.310,0.550,0.516,-,CALM,�L
2023/11/17,14:10,0.495,0.743,0.474,0.935,0.658,0.310,0.548,0.515,��,0.8,�L
2023/11/17,14:20,0.496,0.739,0.471,0.931,0.656,0.310,0.548,0.515,�k��,1.5,�L
2023/11/17,14:30,0.493,0.739,0.473,0.933,0.653,0.310,0.547,0.514,-,CALM,�L
2023/11/17,14:40,0.493,0.739,0.475,0.931,0.652,0.310,0.547,0.514,�쓌,7.0,�L
2023/11/17,14:50,0.494,0.740,0.472,0.930,0.653,0.310,0.547,0.512,���쓌,8.7,�L
2023/11/17,15:00,0.495,0.741,0.475,0.934,0.654,0.311,0.549,0.517,�쓌,9.6,��
2023/11/17,15:10,0.496,0.742,0.474,0.933,0.659,0.310,0.547,0.515,�쐼,3.9,��
2023/11/17,15:20,0.498,0.744,0.473,0.934,0.657,0.311,0.549,0.515,�쐼,3.6,��
2023/11/17,15:30,0.497,0.746,0.473,0.934,0.659,0.311,0.550,0.517,�쐼,4.2,�L
2023/11/17,15:40,0.499,0.748,0.473,0.935,0.658,0.310,0.550,0.519,��쐼,4.0,�L
2023/11/17,15:50,0.498,0.747,0.473,0.936,0.659,0.311,0.550,0.517,��쐼,4.4,�L
2023/11/17,16:00,0.497,0.750,0.472,0.936,0.660,0.310,0.551,0.517,��쐼,3.9,�L
2023/11/17,16:10,0.496,0.748,0.474,0.937,0.662,0.311,0.549,0.518,�쐼,3.1,��
2023/11/17,16:20,0.497,0.748,0.473,0.936,0.662,0.310,0.549,0.519,�쐼,3.0,��
2023/11/17,16:30,0.499,0.750,0.472,0.937,0.662,0.311,0.551,0.519,���쐼,3.0,��
2023/11/17,16:40,0.498,0.751,0.474,0.939,0.661,0.309,0.550,0.518,��,3.4,��
2023/11/17,16:50,0.498,0.750,0.472,0.935,0.662,0.312,0.549,0.518,���k��,3.9,��
2023/11/17,17:00,0.499,0.750,0.474,0.936,0.664,0.312,0.550,0.520,���k��,4.7,��
2023/11/17,17:10,0.497,0.750,0.473,0.940,0.664,0.311,0.551,0.518,���k��,6.2,��
2023/11/17,17:20,0.497,0.748,0.472,0.938,0.664,0.310,0.551,0.519,���k��,7.1,��
2023/11/17,17:30,0.499,0.752,0.473,0.940,0.666,0.310,0.550,0.519,��,6.5,�L
2023/11/17,17:40,0.499,0.750,0.473,0.938,0.664,0.311,0.552,0.518,���쐼,6.4,��
2023/11/17,17:50,0.498,0.753,0.473,0.939,0.664,0.311,0.550,0.519,���쐼,7.3,��
2023/11/17,18:00,0.500,0.752,0.473,0.941,0.663,0.310,0.551,0.519,���쐼,6.5,��
2023/11/17,18:10,0.498,0.752,0.474,0.940,0.665,0.310,0.552,0.519,��,4.7,��
2023/11/17,18:20,0.498,0.751,0.473,0.941,0.664,0.312,0.552,0.520,��,5.2,��
2023/11/17,18:30,0.499,0.752,0.472,0.941,0.665,0.311,0.552,0.519,��,5.4,��
2023/11/17,18:40,0.498,0.750,0.473,0.940,0.667,0.310,0.551,0.518,��,8.7,��
2023/11/17,18:50,0.497,0.754,0.474,0.942,0.668,0.311,0.555,0.519,��,10.2,��
2023/11/17,19:00,0.496,0.751,0.475,0.944,0.669,0.311,0.553,0.521,��,8.9,��
2023/11/17,19:10,0.499,0.753,0.473,0.944,0.666,0.311,0.556,0.520,��,8.7,��
2023/11/17,19:20,0.498,0.753,0.474,0.943,0.668,0.312,0.555,0.520,��,8.3,��
2023/11/17,19:30,0.498,0.752,0.473,0.942,0.668,0.310,0.556,0.521,��,8.9,��
2023/11/17,19:40,0.500,0.752,0.474,0.945,0.669,0.312,0.556,0.520,��,7.3,��
2023/11/17,19:50,0.500,0.752,0.474,0.945,0.669,0.310,0.555,0.520,���k��,7.6,��
2023/11/17,20:00,0.500,0.753,0.475,0.945,0.673,0.312,0.557,0.522,��,9.3,��
2023/11/17,20:10,0.500,0.755,0.474,0.946,0.671,0.313,0.556,0.521,��,7.7,��
2023/11/17,20:20,0.499,0.754,0.476,0.945,0.671,0.311,0.555,0.522,���k��,8.8,��
2023/11/17,20:30,0.501,0.756,0.474,0.946,0.671,0.311,0.556,0.521,��,3.1,��
2023/11/17,20:40,0.500,0.755,0.473,0.946,0.672,0.310,0.556,0.520,���쐼,1.2,��
2023/11/17,20:50,0.500,0.754,0.474,0.945,0.670,0.312,0.558,0.521,���쐼,3.4,��
2023/11/17,21:00,0.500,0.756,0.475,0.947,0.672,0.313,0.557,0.521,��,1.5,��
2023/11/17,21:10,0.501,0.757,0.475,0.946,0.673,0.311,0.556,0.520,��,1.5,��
2023/11/17,21:20,0.500,0.752,0.475,0.944,0.670,0.311,0.557,0.519,��,5.4,��
2023/11/17,21:30,0.502,0.755,0.475,0.948,0.674,0.312,0.557,0.521,��,6.0,��
2023/11/17,21:40,0.502,0.755,0.475,0.948,0.673,0.311,0.557,0.521,��,6.4,��
2023/11/17,21:50,0.499,0.755,0.476,0.945,0.674,0.313,0.556,0.520,���쐼,4.4,��
2023/11/17,22:00,0.502,0.756,0.476,0.948,0.674,0.311,0.557,0.522,��,5.5,��
2023/11/17,22:10,0.501,0.756,0.475,0.947,0.674,0.312,0.557,0.521,��,7.2,��
2023/11/17,22:20,0.502,0.756,0.476,0.948,0.675,0.312,0.559,0.521,���쐼,8.5,��
2023/11/17,22:30,0.501,0.754,0.476,0.947,0.674,0.312,0.557,0.520,���쐼,8.2,��
2023/11/17,22:40,0.502,0.758,0.474,0.948,0.674,0.312,0.557,0.522,���쐼,6.8,��
2023/11/17,22:50,0.501,0.758,0.475,0.951,0.676,0.312,0.557,0.520,��,9.6,��
2023/11/17,23:00,0.503,0.757,0.476,0.950,0.676,0.313,0.558,0.523,��,9.1,��
2023/11/17,23:10,0.502,0.757,0.477,0.951,0.677,0.311,0.557,0.521,��,9.0,��
2023/11/17,23:20,0.503,0.757,0.476,0.950,0.676,0.311,0.559,0.522,��,10.7,��
2023/11/17,23:30,0.503,0.759,0.476,0.949,0.676,0.312,0.557,0.522,��,8.0,��
2023/11/17,23:40,0.503,0.758,0.477,0.953,0.676,0.311,0.558,0.522,��,8.3,��
2023/11/17,23:50,0.502,0.758,0.477,0.951,0.678,0.312,0.558,0.523,��,8.0,��
